Weather History for Hazen, ND

Change the Weather History Date:

Saturday, May 4, 2013

  Actual Average (KN60) Record (KN60)
Temperature  
Mean Temperature 37 °F -  
Max Temperature 57 °F 58 °F 82 °F (2000)
Min Temperature 17 °F 35 °F 24 °F (2002)
Degree Days  
Heating Degree Days 28    
Moisture  
Dew Point 19 °F    
Average Humidity 52    
Maximum Humidity 93    
Minimum Humidity 18    
Precipitation  
Precipitation 0.00 in - - ()
Sea Level Pressure  
Sea Level Pressure 30.30 in    
Wind  
Wind Speed 3 mph (ENE)    
Max Wind Speed 15 mph    
Max Gust Speed 21 mph    
Visibility 10 miles    
Events      
Averages and records for this station are not official NWS values.
T = Trace of Precipitation, MM = Missing Value Source: NWS Daily Summary

Daily Weather History Graph

Daily Weather History Graph

Search for Another Location

Airport:

Trip Planner

Search our weather history database for the weather conditions in past years. The results will help you decide how hot, cold, wet, or windy it might be!

Date:

Astronomy

May. 04, 2013 Rise Set
Actual Time 6:24 AM CDT 9:02 PM CDT
Civil Twilight 5:50 AM CDT 9:36 PM CDT
Nautical Twilight 5:06 AM CDT 10:20 PM CDT
Astronomical Twilight 4:15 AM CDT 11:12 PM CDT
Moon 3:45 AM CDT (5/4) 3:42 PM CDT (5/4)
Length of Visible Light 15h 46m
Length of Day
14h 37m
Waning Crescent, 27% of the Moon is Illuminated
May 4
Waning Crescent
May 9
New
May 17
First Quarter
May 24
Full
May 31
Last Quarter

Hourly Weather History & Observations

Time (CDT) Temp. Windchill Dew Point Humidity Pressure Visibility Wind Dir Wind Speed Gust Speed Precip Events Conditions
12:15 AM 28.4 °F 24.6 °F 19.4 °F 69% 30.29 in 10.0 mi NE 3.5 mph - N/A   Overcast
12:35 AM 32.0 °F - 19.4 °F 60% 30.29 in 10.0 mi Calm Calm - N/A   Overcast
12:55 AM 30.2 °F 25.4 °F 19.4 °F 64% 30.30 in 10.0 mi ENE 4.6 mph - N/A   Overcast
1:15 AM 30.2 °F 25.4 °F 19.4 °F 64% 30.30 in 10.0 mi East 4.6 mph - N/A   Overcast
1:55 AM 28.4 °F - 19.4 °F 69% 30.30 in 10.0 mi Calm Calm - N/A   Scattered Clouds
2:15 AM 26.6 °F - 19.4 °F 74% 30.29 in 10.0 mi Calm Calm - N/A   Partly Cloudy
2:35 AM 24.8 °F - 17.6 °F 74% 30.30 in 10.0 mi Calm Calm - N/A   Partly Cloudy
2:55 AM 24.8 °F - 19.4 °F 80% 30.30 in 10.0 mi Calm Calm - N/A   Clear
3:15 AM 23.0 °F - 17.6 °F 80% 30.30 in 10.0 mi Calm Calm - N/A   Clear
3:35 AM 23.0 °F - 17.6 °F 80% 30.30 in 10.0 mi Calm Calm - N/A   Clear
3:55 AM 21.2 °F - 17.6 °F 86% 30.30 in 10.0 mi Calm Calm - N/A   Mostly Cloudy
4:15 AM 21.2 °F - 17.6 °F 86% 30.30 in 10.0 mi Calm Calm - N/A   Overcast
4:35 AM 19.4 °F 14.3 °F 15.8 °F 86% 30.30 in 10.0 mi SE 3.5 mph - N/A   Overcast
4:55 AM 19.4 °F - 15.8 °F 86% 30.30 in 10.0 mi Calm Calm - N/A   Overcast
5:15 AM 19.4 °F 14.3 °F 15.8 °F 86% 30.31 in 9.0 mi SE 3.5 mph - N/A   Mostly Cloudy
5:35 AM 19.4 °F - 15.8 °F 86% 30.31 in 10.0 mi Calm Calm - N/A   Scattered Clouds
5:55 AM 17.6 °F - 14.0 °F 86% 30.32 in 10.0 mi Calm Calm - N/A   Scattered Clouds
6:15 AM 17.6 °F - 14.0 °F 86% 30.32 in 10.0 mi Calm Calm - N/A   Mostly Cloudy
6:35 AM 17.6 °F - 14.0 °F 86% 30.33 in 10.0 mi Calm Calm - N/A   Scattered Clouds
6:55 AM 17.6 °F - 15.8 °F 93% 30.33 in 10.0 mi Calm Calm - N/A   Partly Cloudy
7:15 AM 21.2 °F - 17.6 °F 86% 30.34 in 8.0 mi Calm Calm - N/A   Clear
7:35 AM 24.8 °F - 19.4 °F 80% 30.34 in 10.0 mi Calm Calm - N/A   Clear
7:55 AM 28.4 °F - 23.0 °F 80% 30.34 in 10.0 mi Calm Calm - N/A   Clear
8:15 AM 32.0 °F - 24.8 °F 75% 30.35 in 9.0 mi Calm Calm - N/A   Clear
8:35 AM 33.8 °F 30.8 °F 26.6 °F 75% 30.34 in 10.0 mi NE 3.5 mph - N/A   Clear
8:55 AM 35.6 °F - 26.6 °F 70% 30.35 in 10.0 mi Calm Calm - N/A   Clear
9:15 AM 37.4 °F - 26.6 °F 65% 30.35 in 10.0 mi Calm Calm - N/A   Clear
9:35 AM 39.2 °F - 26.6 °F 61% 30.34 in 10.0 mi Calm Calm - N/A   Clear
9:55 AM 41.0 °F 38.0 °F 26.6 °F 57% 30.34 in 10.0 mi NE 4.6 mph - N/A   Clear
10:15 AM 44.6 °F - 26.6 °F 49% 30.34 in 10.0 mi Calm Calm - N/A   Clear
10:35 AM 46.4 °F 42.9 °F 26.6 °F 46% 30.34 in 10.0 mi East 6.9 mph - N/A   Clear
10:55 AM 46.4 °F - 24.8 °F 43% 30.34 in 10.0 mi Calm Calm - N/A   Clear
11:15 AM 46.4 °F 41.9 °F 24.8 °F 43% 30.34 in 10.0 mi ENE 9.2 mph - N/A   Clear
11:35 AM 48.2 °F - 23.0 °F 37% 30.34 in 10.0 mi NE 4.6 mph - N/A   Clear
11:55 AM 48.2 °F - 23.0 °F 37% 30.34 in 10.0 mi ENE 6.9 mph - N/A   Clear
12:15 PM 50.0 °F - 21.2 °F 32% 30.33 in 10.0 mi ENE 5.8 mph - N/A   Clear
12:35 PM 51.8 °F - 23.0 °F 33% 30.33 in 10.0 mi NNE 8.1 mph - N/A   Clear
12:55 PM 51.8 °F - 19.4 °F 28% 30.33 in 10.0 mi ENE 10.4 mph - N/A   Clear
1:15 PM 53.6 °F - 17.6 °F 24% 30.32 in 10.0 mi NE 11.5 mph - N/A   Clear
1:35 PM 53.6 °F - 17.6 °F 24% 30.32 in 10.0 mi East 3.5 mph - N/A   Clear
1:55 PM 53.6 °F - 19.4 °F 26% 30.31 in 10.0 mi East 6.9 mph - N/A   Clear
2:15 PM 55.4 °F - 19.4 °F 25% 30.30 in 10.0 mi ENE 10.4 mph - N/A   Clear
2:35 PM 55.4 °F - 17.6 °F 23% 30.30 in 10.0 mi ENE 11.5 mph - N/A   Clear
2:55 PM 55.4 °F - 17.6 °F 23% 30.30 in 10.0 mi ENE 8.1 mph 19.6 mph N/A   Clear
3:15 PM 57.2 °F - 15.8 °F 20% 30.30 in 10.0 mi NE 5.8 mph - N/A   Clear
3:35 PM 57.2 °F - 14.0 °F 18% 30.29 in 10.0 mi ENE 5.8 mph - N/A   Clear
3:55 PM 57.2 °F - 14.0 °F 18% 30.28 in 10.0 mi ENE 9.2 mph - N/A   Clear
4:15 PM 57.2 °F - 14.0 °F 18% 30.28 in 10.0 mi NE 15.0 mph - N/A   Clear
4:35 PM 57.2 °F - 14.0 °F 18% 30.28 in 10.0 mi NNE 9.2 mph 16.1 mph N/A   Clear
4:55 PM 57.2 °F - 14.0 °F 18% 30.27 in 10.0 mi NNE 10.4 mph 20.7 mph N/A   Clear
5:15 PM 57.2 °F - 15.8 °F 20% 30.27 in 10.0 mi ENE 11.5 mph 19.6 mph N/A   Clear
5:35 PM 57.2 °F - 17.6 °F 21% 30.27 in 10.0 mi NNE 8.1 mph - N/A   Clear
5:55 PM 57.2 °F - 15.8 °F 20% 30.27 in 10.0 mi NE 10.4 mph - N/A   Clear
6:15 PM 57.2 °F - 15.8 °F 20% 30.27 in 10.0 mi NE 10.4 mph 17.3 mph N/A   Clear
6:35 PM 57.2 °F - 15.8 °F 20% 30.27 in 10.0 mi NE 10.4 mph 17.3 mph N/A   Clear
6:55 PM 57.2 °F - 15.8 °F 20% 30.27 in 10.0 mi NE 10.4 mph - N/A   Clear
7:15 PM 57.2 °F - 17.6 °F 21% 30.26 in 10.0 mi NNE 10.4 mph - N/A   Clear
7:35 PM 55.4 °F - 17.6 °F 23% 30.26 in 10.0 mi NNE 12.7 mph 18.4 mph N/A   Clear
7:55 PM 55.4 °F - 19.4 °F 25% 30.26 in 10.0 mi NE 8.1 mph - N/A   Clear
8:15 PM 55.4 °F - 19.4 °F 25% 30.27 in 10.0 mi NE 8.1 mph - N/A   Clear
8:35 PM 51.8 °F - 21.2 °F 30% 30.27 in 10.0 mi ENE 4.6 mph - N/A   Clear
8:55 PM 50.0 °F - 23.0 °F 35% 30.27 in 10.0 mi ENE 4.6 mph - N/A   Clear
9:15 PM 42.8 °F 41.1 °F 23.0 °F 46% 30.27 in 5.0 mi East 3.5 mph - N/A   Haze
9:35 PM 37.4 °F 33.8 °F 23.0 °F 56% 30.28 in 5.0 mi East 4.6 mph - N/A   Haze
9:55 PM 35.6 °F 32.8 °F 23.0 °F 60% 30.28 in 10.0 mi ESE 3.5 mph - N/A   Clear
10:15 PM 32.0 °F - 23.0 °F 69% 30.29 in 10.0 mi Calm Calm - N/A   Partly Cloudy
10:35 PM 32.0 °F - 21.2 °F 64% 30.29 in 10.0 mi Calm Calm - N/A   Partly Cloudy
10:55 PM 32.0 °F - 21.2 °F 64% 30.29 in 10.0 mi Calm Calm - N/A   Clear
11:15 PM 32.0 °F - 21.2 °F 64% 30.29 in 10.0 mi Calm Calm - N/A   Clear
11:35 PM 32.0 °F - 21.2 °F 64% 30.29 in 10.0 mi Calm Calm - N/A   Partly Cloudy
11:55 PM 28.4 °F - 21.2 °F 74% 30.29 in 10.0 mi Calm Calm - N/A   Partly Cloudy